FLOCK 4Y 13

导读 | 星芒AI

FLOCK 4Y 13 是Planet Labs公司发射的一颗地球观测卫星,属于其“SkySat”星座的一部分。该卫星主要用于高分辨率光学成像,支持环境监测、农业分析、灾害评估等多种应用。它以高精度和快速重访能力著称,能够提供实时或近实时的地球表面图像。FLOCK 4Y 13 通常与其他卫星协同工作,提升数据获取效率和覆盖范围,为政府、科研机构和商业用户提供关键地理信息支持。

基本信息
目录编号:
55079
目录名称:
FLOCK 4Y 13
国际标识:
2023-001BY
轨道中心:
EARTH
卫星名称:
FLOCK 4Y 13
卫星全名:
--
卫星状态:
已陨落 最后检测时间 2025-08-11
发射日期:
2023-01-03 UTC
国别 :
美国 (US)
星等 :
--
轨道信息
数据来源 国际轨道数据
星历时间: 2025-08-11T22:01:24+0800
轨道信息已过期118天
半长轴: 6542.709km
偏心率: 0.001382
轨道倾角: 97.333°
近地点辐角 268.251°
升交点赤经 301.458°
平近点角 91.721°
近地点: 155.531km
远地点: 173.617km
周期: 87.780分钟
每日圈数: 16.40463
详细信息
使用方式:
暂无